Location: Foligno
(42.9600°N, 12.7050°E)
Time: 21:15:32
(UTC+01:00)

ISS - Pass Details

Date: 13 January 2018
Orbit: 402 x 407 km, 51.6° (Epoch: 17 January)

Event Time Altitude Azimuth Distance (km) Brightness Sun altitude
Exits shadow 05:34:05 40° 47° (NE) 612 -2.7 -22.3°
Drops below altitude 10° 05:36:51 10° 99° (E) 1,462 0.2 -21.8°
Sets 05:38:59 0° 107° (ESE) 2,320 1.5 -21.4°
